Location: Eastchurch
(51.4000°N, 0.8667°E)
Time: 07:22:36
(UTC+00:00)

BREEZE-M DEB (TANK) - Pass Details

Date: 19 January 2026
Orbit: 609 x 17103 km, 49.5° (Epoch: 18 February)

Event Time Altitude Azimuth Distance (km) Brightness Sun altitude
Rises 16:57:46 0° 257° (WSW) 5,438 9.9 -5.5°
Reaches altitude 10° 17:02:19 10° 255° (WSW) 3,327 8.5 -6.1°
Maximum altitude 17:08:32 69° 173° (S) 760 3.6 -7.0°
Drops below altitude 10° 17:12:09 10° 90° (E) 1,962 5.1 -7.5°
Enters shadow 17:12:35 - 89° (E) 2,169 5.3 -7.6°
